Location: P�rn�nmaa
(61.1833°N, 23.0000°E)
Time: 18:26:42
(UTC+00:00)

SL-4 R/B - Pass Details

Date: 08 December 2019
Orbit: 428 x 667 km, 51.6° (Epoch: 17 January)

Event Time Altitude Azimuth Distance (km) Brightness Sun altitude
Rises 17:21:26 0° 240° (WSW) 2,578 6.3 -27.2°
Reaches altitude 10° 17:23:54 10° 224° (SW) 1,740 5.0 -27.5°
Enters shadow 17:25:12 16° 208° (SSW) 1,406 4.3 -27.6°
